sat.trackr.live / text

‹ back to catalog

STARLINK-11672 [DTC]

NORAD 63665 · 2025-085B

PAYLOAD ACTIVE UNKNOWN

§ Identity

Operator
Country
US
Launch date
2025-04-28
Launch site
AFETR
Launch vehicle
Mass (kg)
RCS (m²)

Purposes: comms

External: N2YO · Heavens-Above · Gunter

§ Orbital elements

Epoch: 2026-09-20T19:22:43.565952Z

Period
91.66 min
Inclination
42.9998°
Eccentricity
0.0003025
Mean motion
15.70963718 rev/d
Perigee alt
354.1 km
Apogee alt
358.2 km
Semi-major
6,734.3 km
B*
1.7086e-3
RAAN
181.8788°
Arg perigee
233.2356°
Mean anomaly
126.8234°
Rev number
8,154

§ Raw data

STARLINK-11672 [DTC]1 63665U 25085B   26263.80744868  .00226042  00000+0  17086-2 0  99992 63665  42.9998 181.8788 0003025 233.2356 126.8234 15.70963718 81545

JSON: /api/v1/satellites/63665 · /tle

For live sub-satellite position, see the globe view (requires WebGL).

§ Visibility from observer

Set your observer location to see the next 7 days of passes ≥ 10°. The values pass through the URL so the page stays shareable.

No JS? Fill the form by hand. The geolocation button needs JavaScript.